Theta_e
354 353 352 353 353 352 351 350 350 351 352 352 352 352 353 353 349 350 349 348 351 351 350 350 349 350 351 350 350 349 349 349 348 346 346 345 343 343 341 339 339 339 340 341 341 340 340 340 341 341 341 341 337 333 333 336 338 339 339 339 338 338 339 338 337 336 335 336 337 337 337 337 336 336 336 336 336 337 337 335 334 333 334 334 335
352 354 354 353 353 352 351 352 352 351 352 352 352 351 352 350 347 349 348 346 349 347 345 347 347 349 349 348 347 345 345 346 348 348 347 346 344 342 342 342 340 340 338 339 341 341 341 341 341 341 341 341 341 339 336 335 335 337 338 339 338 338 338 338 337 336 335 335 335 336 336 336 336 337 336 336 337 338 338 338 336 334 333 333 332
353 353 354 354 353 353 352 353 353 352 353 353 352 350 349 347 344 344 344 345 348 345 342 343 344 347 346 344 344 343 343 343 346 348 347 346 345 342 342 343 342 341 339 338 339 341 341 341 341 341 341 341 341 341 340 339 337 336 336 337 337 337 337 337 337 336 336 334 333 333 334 334 334 336 336 337 337 338 338 338 337 335 335 334 333
354 352 353 355 354 354 354 353 353 354 353 350 347 346 346 346 342 341 343 345 346 344 341 340 341 343 343 342 342 342 343 342 343 346 347 346 345 343 342 343 342 341 341 340 339 339 340 341 341 341 341 341 341 341 341 341 340 339 338 337 336 336 336 336 336 336 336 334 332 332 333 333 333 333 334 335 336 337 337 336 336 335 335 334 333
348 346 349 355 355 354 354 354 354 353 350 344 343 347 348 347 346 345 344 344 345 343 341 339 339 339 338 338 340 342 342 341 342 344 347 347 344 342 342 344 343 342 341 341 341 340 339 339 340 341 342 342 342 342 341 341 341 341 340 339 339 338 338 338 337 337 336 334 334 334 334 334 334 333 333 333 333 334 334 335 335 335 335 335 334
342 342 346 354 355 353 353 355 354 350 346 343 345 351 350 349 349 347 343 344 344 341 339 339 339 337 337 336 337 341 341 339 341 342 345 347 344 341 343 344 344 343 342 342 342 342 341 340 340 341 341 343 342 342 342 341 341 341 340 340 340 340 340 339 339 338 338 337 337 336 335 335 335 336 336 335 335 335 334 335 335 335 335 336 335
341 342 344 351 355 354 354 355 352 347 347 344 345 352 351 349 348 346 345 343 339 338 339 340 339 337 337 336 335 337 338 338 339 340 342 345 345 344 342 343 344 344 343 343 343 342 340 340 340 340 339 341 342 341 341 340 340 340 341 341 340 341 340 340 340 340 339 338 339 338 337 337 337 337 337 337 337 336 336 335 335 335 335 336 336
340 342 343 349 355 356 355 353 347 345 347 343 345 351 349 348 345 344 346 339 334 338 340 339 340 337 335 335 335 335 336 336 336 338 341 342 345 343 342 342 343 342 341 343 344 342 340 339 339 340 339 340 340 340 340 340 340 340 340 340 340 341 341 341 341 340 340 340 339 339 339 339 339 338 338 338 338 338 337 337 336 336 336 336 337
340 344 344 348 354 356 355 352 347 346 346 345 349 353 350 349 345 344 345 338 333 337 337 338 339 337 336 336 336 337 338 338 336 337 341 341 343 345 344 342 341 341 343 344 344 342 341 339 338 339 339 340 340 340 340 341 341 341 340 340 340 340 341 341 341 341 341 341 340 340 340 340 340 340 340 340 340 339 339 338 337 337 336 337 337
341 344 345 348 352 354 354 352 348 347 346 347 352 354 351 350 348 345 343 340 337 336 336 339 339 337 336 337 339 340 340 341 339 338 340 341 343 347 346 342 341 341 342 344 343 342 342 340 340 340 339 340 340 340 341 341 341 340 340 340 340 340 340 341 341 340 340 340 340 341 341 341 341 340 340 340 340 340 340 340 339 338 338 339 338
342 344 346 347 349 351 352 350 349 347 346 350 354 354 350 347 348 346 341 340 339 336 335 336 338 337 337 338 341 341 341 342 341 340 341 340 343 347 347 344 343 341 341 342 344 343 342 341 341 341 340 340 340 341 340 338 339 339 339 339 340 339 339 341 341 341 340 340 340 340 340 340 341 340 341 341 341 341 340 340 340 339 339 339 339
340 343 345 345 346 350 351 349 349 348 348 351 355 355 351 347 347 344 341 341 339 337 335 336 339 339 340 341 342 342 342 342 342 341 341 340 343 346 347 346 345 345 344 343 344 344 341 342 342 341 340 339 338 338 337 336 336 337 338 339 339 339 340 341 341 341 340 340 340 340 340 340 340 340 340 341 341 341 340 340 340 340 340 339 339
340 341 344 343 344 347 350 350 349 348 348 350 353 352 348 346 344 340 343 342 341 340 335 336 340 339 340 341 341 342 342 342 342 341 340 340 344 347 347 347 347 347 346 344 344 344 342 343 344 341 340 340 340 338 336 336 335 334 335 337 337 338 338 338 339 339 339 339 338 338 338 337 338 338 339 340 340 341 341 340 340 341 340 340 339
341 341 343 344 344 345 347 349 348 348 348 348 349 348 345 347 345 343 346 342 341 341 333 335 340 339 340 341 341 341 340 341 342 341 341 342 345 347 346 346 347 347 346 344 342 342 343 343 343 343 340 340 341 339 338 339 335 331 331 332 335 337 337 336 335 333 333 332 329 328 327 327 328 329 331 333 335 336 337 338 339 340 340 340 340
341 342 343 345 346 346 348 349 348 348 348 348 348 346 345 348 348 347 345 340 341 338 331 337 341 338 340 342 342 341 339 341 342 341 342 343 344 345 343 343 344 344 344 343 340 340 339 336 337 340 339 340 341 340 339 337 330 326 325 326 329 332 331 329 324 322 321 320 319 319 319 319 319 319 320 322 322 324 326 328 331 333 334 336 337
341 343 345 346 346 349 350 350 349 348 348 348 348 348 346 347 349 347 343 341 344 338 332 341 343 339 343 343 340 340 341 342 341 341 342 343 343 342 342 342 342 341 342 339 338 339 336 329 327 332 334 336 338 338 335 329 323 320 319 319 320 322 321 319 318 318 318 318 318 319 319 319 318 318 319 318 318 318 319 318 319 320 322 323 325
342 344 345 346 347 349 350 350 350 349 347 347 349 350 348 348 349 347 343 343 345 342 336 340 342 341 344 344 340 341 341 340 340 340 341 342 342 341 341 341 341 341 339 336 335 338 337 329 324 325 329 334 338 338 333 324 320 319 318 318 319 318 318 318 318 318 319 319 318 318 319 318 318 318 318 318 319 318 318 318 318 318 318 317 317
343 344 345 347 346 347 349 349 350 349 347 348 349 349 348 348 349 346 345 343 343 345 342 339 341 343 343 343 343 343 342 340 341 341 341 342 341 341 340 340 341 340 338 336 336 338 337 334 330 329 332 336 336 335 330 321 319 319 319 320 319 319 318 318 318 318 318 318 318 317 318 318 318 318 317 317 317 317 317 317 318 317 317 317 317
342 344 344 346 345 345 347 348 350 349 347 349 348 349 349 349 349 346 347 345 339 341 345 339 336 339 343 343 343 344 343 342 343 342 342 342 341 340 340 339 341 340 338 337 338 338 337 338 336 333 335 335 331 330 326 321 321 321 321 320 320 320 320 320 320 320 320 320 320 320 319 319 320 320 319 319 318 318 317 317 317 317 317 316 316
343 344 343 344 344 345 347 348 350 349 348 349 348 350 351 350 349 345 346 346 333 332 344 342 334 336 340 343 343 343 342 343 343 343 343 342 341 340 340 339 339 338 338 336 338 339 336 336 337 335 335 334 332 334 331 325 323 323 322 323 323 323 323 323 323 323 322 322 322 322 322 322 322 321 321 321 320 320 320 319 319 319 319 318 318
341 343 341 342 343 344 347 348 349 350 348 349 350 349 349 350 349 344 344 345 332 326 341 346 339 339 337 337 342 343 341 342 343 344 344 342 342 340 339 339 337 337 336 336 338 338 336 336 336 336 336 335 336 337 336 333 329 325 324 325 325 326 325 325 325 325 324 323 323 323 323 323 322 322 322 322 321 321 321 321 321 321 321 320 320
340 343 341 338 340 343 346 347 348 349 348 349 351 349 347 346 348 346 343 347 338 323 335 346 344 345 338 329 334 339 340 341 341 342 343 343 342 341 339 338 338 337 336 336 336 336 337 337 335 336 337 335 336 336 335 336 335 331 328 326 326 327 327 327 327 327 326 324 323 323 323 323 323 323 323 323 323 322 322 321 321 321 321 321 321
343 345 343 338 340 342 346 347 348 350 349 349 349 349 349 345 346 348 344 346 344 326 328 343 345 347 344 331 331 337 339 341 340 340 342 342 342 340 339 339 338 339 337 337 337 336 336 337 335 337 338 337 336 336 336 336 336 334 330 327 327 327 328 329 328 328 327 325 323 322 322 323 323 324 324 324 324 323 322 322 321 321 320 320 321
345 348 346 341 339 341 344 344 346 349 349 349 348 347 352 349 349 352 345 345 348 334 322 334 343 347 346 338 336 341 341 341 341 341 341 342 342 340 338 339 339 339 339 339 338 337 336 336 336 336 337 337 337 337 337 337 336 333 328 327 327 328 328 328 329 328 328 327 325 323 323 323 323 324 325 325 324 324 323 322 321 321 321 321 320
344 346 347 345 340 339 342 343 345 348 348 349 348 345 350 351 350 351 346 343 347 339 321 323 336 344 346 344 341 342 342 340 341 342 342 341 341 341 340 340 339 338 338 340 339 338 337 336 336 336 336 337 338 337 337 336 337 334 331 329 328 328 328 328 329 329 329 328 327 326 324 324 324 324 325 326 326 326 325 324 323 322 322 321 321
340 341 344 349 348 340 338 340 342 344 345 347 348 345 346 350 351 351 348 345 347 344 329 320 329 339 344 346 344 343 344 341 338 338 340 341 341 341 342 341 340 339 338 340 339 337 337 336 336 336 337 337 338 338 336 335 337 336 334 333 329 328 329 329 329 329 329 329 328 327 325 324 324 325 325 326 326 327 326 325 325 324 323 322 321
341 338 340 350 355 351 342 337 340 342 344 345 346 345 345 347 350 350 350 348 348 348 339 325 324 333 339 344 345 345 344 343 339 336 336 340 340 340 341 342 341 338 338 341 340 338 336 337 336 336 338 338 338 339 338 336 337 337 335 333 331 329 328 329 329 329 329 329 328 326 325 324 325 325 325 326 326 326 326 326 326 325 325 323 323
348 343 339 342 351 354 348 339 339 342 343 345 344 342 343 346 349 348 348 351 349 348 345 335 325 328 334 338 341 344 344 343 342 339 337 337 339 338 340 341 343 340 338 339 340 339 336 336 337 336 338 338 335 335 338 336 335 334 331 329 329 330 329 328 328 328 327 326 325 325 324 324 324 325 325 325 326 326 326 326 326 326 326 325 325
350 350 345 340 340 346 346 340 340 343 343 345 343 341 341 344 348 349 347 350 350 347 347 342 331 329 334 336 334 337 344 345 341 341 340 337 338 339 339 339 341 341 340 339 340 340 338 336 337 337 338 337 332 332 336 335 332 331 331 331 331 333 333 329 326 326 325 324 324 324 324 324 324 325 325 325 325 325 325 326 325 325 325 325 325
344 350 352 347 338 338 340 338 339 342 343 346 346 344 344 343 345 348 347 348 350 347 346 345 339 333 335 339 336 331 339 344 340 339 341 337 333 336 338 338 338 339 341 342 341 340 339 338 337 336 337 337 333 331 334 335 333 330 332 335 336 336 335 330 326 324 323 323 324 324 324 324 325 325 325 325 325 325 325 325 325 325 324 324 325
339 342 350 352 343 337 339 337 337 339 340 343 345 345 346 345 344 347 348 346 349 349 345 344 345 340 335 338 340 334 334 340 340 337 338 335 329 332 336 335 334 335 339 343 343 341 340 338 337 337 337 337 336 336 336 337 334 330 329 331 333 332 330 327 325 323 323 323 324 324 324 325 325 325 325 325 325 325 325 325 324 325 324 325 325
342 340 342 347 346 341 339 338 338 340 340 341 345 345 345 346 344 345 348 346 348 351 346 341 344 344 336 331 333 334 333 336 339 337 337 333 327 330 336 335 332 330 332 338 342 341 341 339 336 338 340 336 335 336 339 340 336 330 328 328 327 327 325 326 326 326 326 325 324 325 325 325 325 325 325 326 325 326 325 325 325 325 325 325 324
346 346 341 341 343 342 341 341 341 341 342 339 341 344 344 345 343 343 347 346 345 349 347 343 344 346 343 332 326 328 329 331 333 336 339 336 328 328 333 336 334 332 329 331 337 340 341 340 336 336 339 338 336 335 336 338 338 332 327 326 325 325 327 331 334 333 331 330 328 327 326 326 326 326 326 326 326 327 327 327 327 327 327 326 325
344 346 345 339 339 339 341 345 343 340 343 341 339 341 343 342 341 340 343 344 344 345 344 345 345 345 346 339 328 325 325 323 324 330 338 341 335 331 333 335 338 339 335 329 333 339 340 341 340 337 336 337 338 337 332 333 337 337 333 329 328 328 330 333 336 336 334 332 329 328 326 326 325 325 326 326 326 327 327 327 327 327 328 328 327
347 344 343 341 339 338 338 343 342 339 341 341 339 341 343 340 338 338 341 343 345 344 342 343 344 345 346 342 334 330 326 322 320 322 331 340 342 337 336 338 339 341 341 336 334 338 340 340 341 341 338 336 336 336 334 329 331 336 336 332 331 334 335 335 335 336 335 332 328 326 326 325 325 324 324 324 324 324 324 325 325 325 326 327 328
352 347 342 341 341 338 336 338 339 338 338 338 338 340 342 342 339 337 339 341 343 343 342 341 343 344 344 342 339 336 334 328 323 319 321 330 340 340 338 338 339 339 343 342 337 337 339 340 341 341 340 339 337 335 335 332 329 331 334 333 334 336 337 337 336 336 335 331 328 327 325 324 325 323 322 321 321 321 321 321 321 322 324 325 327
353 354 347 342 343 341 337 335 337 336 336 336 337 338 341 344 344 338 336 338 340 342 342 341 342 343 343 341 339 339 340 338 333 328 322 321 328 335 336 337 338 335 338 343 341 337 337 339 342 342 340 341 340 338 338 337 335 334 333 332 334 335 334 335 337 338 336 333 331 330 328 326 324 323 322 322 320 320 321 320 320 320 321 322 323
347 356 354 346 342 342 339 337 335 336 336 336 335 336 338 342 344 341 337 337 338 339 341 341 341 342 342 341 340 339 340 340 339 337 332 325 321 324 328 332 335 334 333 337 341 338 336 337 340 342 341 340 341 341 339 338 338 339 337 334 334 336 334 334 335 336 336 335 335 334 331 330 327 324 323 323 322 321 320 320 320 321 321 321 321
345 353 358 353 345 342 341 340 337 335 335 335 335 336 336 338 340 339 338 337 337 338 339 340 341 342 343 342 342 341 340 338 339 340 340 336 328 323 321 324 329 334 334 335 339 339 338 338 339 341 341 341 341 341 340 338 336 337 338 338 339 339 336 333 332 333 335 335 336 335 334 332 331 329 325 323 322 321 321 321 322 322 323 322 321
349 349 356 358 354 346 342 341 339 337 336 335 334 335 335 336 337 338 337 337 337 338 338 338 340 342 345 345 343 342 341 338 338 339 340 340 337 331 324 320 323 328 333 338 340 340 341 341 341 341 341 341 341 341 341 340 337 335 333 335 337 339 338 335 333 334 336 335 334 333 334 334 332 331 329 326 323 322 323 323 324 325 326 325 324
357 353 353 357 359 355 347 342 341 340 338 336 334 333 333 335 336 337 336 335 336 338 338 338 338 340 346 350 350 346 342 338 337 338 340 339 340 338 334 327 322 322 327 336 341 342 342 342 341 341 341 341 341 341 341 339 337 334 334 334 336 339 340 339 337 335 335 336 334 332 331 332 333 333 332 329 327 328 328 328 328 328 329 329 327
359 357 354 355 360 360 355 347 341 341 340 338 335 334 333 333 333 335 335 333 334 336 337 338 338 339 343 350 353 351 345 341 338 337 339 339 340 340 340 335 329 323 322 328 337 342 343 342 341 342 342 341 341 341 341 340 336 336 338 338 338 340 340 340 339 337 335 336 337 335 333 332 334 334 333 331 331 332 332 333 332 331 331 331 329
356 357 357 355 356 359 361 355 345 340 342 339 337 335 334 333 332 333 333 333 333 333 335 337 337 338 340 344 351 353 350 346 342 338 338 340 340 341 341 341 338 332 324 322 329 339 343 343 342 342 341 341 342 341 340 341 340 339 340 340 339 339 339 339 340 338 336 335 336 335 334 333 332 332 331 331 332 332 333 333 331 329 328 328 327
350 354 355 352 350 353 359 361 353 342 341 342 340 337 335 334 334 334 334 334 334 333 334 336 337 337 337 341 347 351 351 348 345 342 339 340 341 341 342 343 343 341 335 327 324 331 339 342 342 342 341 341 342 341 340 340 340 340 341 340 340 340 340 339 339 339 336 335 335 334 333 332 331 332 332 331 332 332 332 330 328 326 324 323 322
346 349 350 347 345 344 350 359 360 352 344 342 342 342 341 339 337 337 338 338 337 336 334 335 338 339 338 337 342 348 351 349 346 344 343 342 341 342 343 344 345 344 342 337 328 326 333 340 342 342 341 341 341 340 340 340 341 341 341 340 340 341 340 337 337 338 336 334 334 333 331 329 330 331 332 331 331 330 329 328 326 325 325 324 321
346 347 346 344 345 344 344 351 358 358 354 348 344 344 343 344 343 342 343 342 342 341 339 337 338 340 340 338 337 341 347 348 346 345 345 343 342 343 343 344 346 345 344 342 336 328 328 336 342 342 341 341 341 340 340 340 340 340 341 339 339 340 340 337 336 337 335 332 331 331 329 329 331 332 332 331 329 328 327 326 326 325 325 323 320
347 346 345 344 345 345 345 346 352 356 358 355 350 345 344 344 345 345 345 345 345 344 345 344 342 342 342 342 340 339 342 345 343 343 343 341 341 343 343 344 345 346 345 344 341 334 325 326 335 341 343 341 340 341 339 337 337 338 339 340 338 337 337 337 336 335 333 331 331 332 332 332 333 332 331 329 328 327 326 325 325 324 324 322 321
351 350 348 347 348 349 349 348 348 351 354 354 352 349 345 345 344 344 345 345 346 346 346 347 347 345 345 346 346 344 343 343 342 340 339 339 338 340 342 343 343 346 346 344 344 341 332 322 323 332 340 341 341 340 337 335 338 338 337 338 337 335 334 334 332 332 332 332 332 333 333 333 332 331 330 329 327 326 325 325 325 324 323 323 322
355 357 357 355 354 353 352 351 349 349 351 353 353 349 348 346 345 345 345 345 346 347 346 347 347 347 347 348 350 350 348 345 343 339 336 336 337 338 340 342 343 345 347 346 345 344 341 330 321 323 330 335 339 340 336 334 338 339 338 338 338 337 335 334 333 333 334 333 332 331 332 332 331 330 330 328 326 325 324 324 324 324 323 322 320
356 360 362 362 358 355 353 352 350 350 350 350 350 348 348 347 346 345 345 346 346 346 346 347 347 348 348 350 352 353 351 348 344 341 337 335 335 337 339 342 344 344 346 348 346 345 344 337 326 322 324 328 334 338 337 334 335 335 335 337 337 336 336 335 335 335 334 332 331 331 331 331 331 330 329 327 325 324 324 325 324 323 322 320 318
352 356 360 362 363 360 357 354 355 355 354 352 351 351 351 350 349 347 347 348 348 346 346 347 347 347 349 352 353 353 351 349 346 344 342 339 336 335 338 344 346 345 346 347 347 346 345 341 333 327 325 325 328 333 335 333 331 331 333 334 335 334 334 334 334 334 333 332 331 330 330 330 329 329 327 325 324 323 323 323 322 321 319 318 316
Wind_Speed
6 6 5 5 5 4 3 1 1 2 1 2 3 1 1 2 1 1 2 2 1 1 1 1 2 1 1 2 2 2 3 3 2 2 1 2 2 3 4 5 4 5 4 3 3 3 2 2 2 3 4 4 4 4 4 4 4 4 4 4 4 3 2 2 1 1 1 1 2 2 2 2 2 2 2 2 3 3 3 3 3 3 3 4 4
7 6 6 6 6 5 3 2 3 2 2 3 3 2 2 1 1 1 2 2 2 3 2 1 1 1 1 2 2 2 2 1 1 2 1 2 2 1 3 4 3 4 4 2 3 3 3 3 3 3 3 3 3 3 4 4 4 4 4 4 4 3 3 2 2 2 2 2 3 3 3 3 3 3 3 3 4 4 4 4 4 4 4 5 4
7 7 6 6 5 4 4 3 3 2 3 3 2 3 2 2 2 2 2 2 3 3 2 1 1 1 1 1 2 2 2 1 1 0 2 1 2 1 2 3 2 4 3 2 1 2 3 3 3 3 3 3 3 3 3 3 4 3 4 4 3 3 3 3 3 3 4 4 4 5 4 4 4 5 5 5 5 5 5 5 5 5 5 6 5
10 10 7 5 5 4 4 4 3 3 3 2 3 4 4 3 3 2 2 3 4 3 3 1 1 1 1 1 2 2 2 1 1 1 1 1 2 1 1 2 2 2 2 2 1 1 2 2 2 3 3 3 3 3 3 3 3 3 3 3 3 4 4 4 4 5 5 5 5 5 5 5 6 6 6 6 7 7 6 6 6 6 6 6 6
12 11 8 6 6 6 5 4 3 3 3 3 4 4 4 4 4 3 3 5 4 3 3 1 1 1 0 1 2 1 2 2 0 2 0 0 2 1 1 2 2 2 2 2 1 1 1 1 2 2 3 3 3 4 3 3 4 4 4 4 5 5 5 5 6 6 6 6 6 6 6 7 7 6 7 7 7 7 7 7 7 7 7 7 7
11 10 9 6 6 7 5 4 4 4 3 4 4 3 4 4 3 4 6 5 3 3 3 1 1 1 1 2 2 1 1 3 0 3 1 1 2 1 2 2 2 2 2 1 1 1 1 1 2 2 2 2 3 3 3 3 3 4 5 5 6 6 7 7 7 7 7 8 7 8 8 8 8 8 8 8 8 8 8 8 8 8 9 9 8
11 10 10 8 7 6 5 5 5 3 3 4 3 2 3 3 3 4 5 4 3 3 2 1 1 1 0 2 1 2 1 1 1 1 3 2 2 2 2 2 1 1 1 1 1 0 1 1 1 1 1 1 2 2 2 2 2 3 3 4 5 6 7 8 8 8 9 9 9 9 9 9 9 9 9 9 9 9 10 10 9 10 10 10 10
12 10 10 10 7 6 6 6 5 3 3 4 3 2 3 3 3 4 3 3 3 2 2 1 1 1 1 1 2 1 1 1 2 1 2 3 1 2 2 2 1 1 1 1 2 1 0 1 1 0 0 1 1 1 1 2 2 2 2 3 4 4 5 6 7 8 9 10 10 10 10 10 10 11 11 10 11 11 11 11 11 10 10 11 12
13 11 11 10 8 7 7 6 4 3 3 3 2 3 3 3 4 3 2 4 3 2 2 1 2 2 1 3 3 1 1 1 1 3 1 3 0 3 2 1 1 1 1 1 1 1 1 0 1 0 0 1 0 0 1 2 1 2 2 3 3 4 4 4 5 6 7 8 9 10 10 11 11 11 11 11 12 12 12 12 12 11 11 12 12
13 12 11 11 9 7 7 6 4 3 3 3 2 3 2 3 3 2 3 4 2 2 2 1 2 1 1 3 4 3 1 1 1 3 1 4 1 2 2 1 2 1 1 1 1 1 1 1 1 1 0 0 0 0 1 0 1 1 1 2 3 3 3 4 4 4 5 6 7 8 8 9 10 11 11 11 12 12 12 13 12 12 12 12 12
13 13 12 11 9 7 8 6 4 4 3 2 2 3 4 3 3 2 3 3 2 1 1 1 2 1 2 3 2 4 3 0 1 3 1 3 1 2 0 1 3 1 0 1 2 1 1 1 1 1 0 1 0 1 1 1 2 1 1 1 2 3 3 3 3 4 4 4 4 5 6 7 8 9 10 10 11 12 12 12 12 12 12 12 12
14 14 12 11 10 8 8 7 5 5 4 3 3 3 4 3 2 2 3 4 2 2 1 2 3 2 2 3 1 1 2 2 2 2 3 3 2 2 1 2 3 1 1 1 0 0 1 1 1 1 1 1 0 1 2 2 2 2 2 2 2 2 2 2 2 2 2 2 2 3 4 5 6 6 7 8 9 10 10 11 11 11 12 12 12
15 14 13 12 11 10 8 7 6 5 5 4 4 4 3 2 2 2 2 3 1 1 2 3 4 3 3 2 1 1 1 1 1 2 3 3 2 2 2 2 2 2 2 2 0 1 2 2 1 1 1 0 0 1 2 2 3 3 2 2 2 2 2 2 1 1 1 0 0 1 1 2 3 4 4 5 6 7 7 8 9 9 10 11 11
15 15 14 12 12 11 9 8 7 6 5 5 4 4 3 2 1 1 2 2 1 1 4 6 5 4 5 3 2 3 2 2 2 3 4 3 3 4 4 4 4 3 3 3 3 3 2 1 1 1 1 1 1 0 2 2 2 2 1 2 2 2 2 1 1 1 2 1 1 1 1 2 2 2 3 3 4 4 5 5 6 8 8 10 10
16 15 14 12 12 11 9 8 7 6 6 5 4 4 2 2 1 1 1 1 1 2 6 7 3 2 5 5 4 5 4 3 4 4 4 4 4 5 4 4 4 4 4 4 4 3 2 2 1 1 1 1 0 1 3 2 2 1 1 1 2 2 1 1 1 2 3 3 2 2 2 2 2 2 2 3 3 3 4 4 5 6 7 8 9
16 15 14 13 12 11 9 8 7 7 6 5 4 3 3 3 2 2 3 3 2 2 5 6 4 4 5 3 3 5 6 6 6 5 4 4 5 5 5 5 4 5 5 4 4 4 3 3 3 2 2 1 1 1 1 2 2 2 2 2 2 2 2 1 1 1 1 1 1 0 0 0 1 1 2 2 3 3 3 4 4 5 5 6 7
17 16 15 13 12 11 10 9 8 7 7 6 5 4 4 4 3 3 4 4 3 3 4 5 6 7 7 4 3 3 4 7 7 5 4 4 5 5 5 5 4 5 4 3 4 5 3 3 2 1 1 2 4 3 1 2 2 2 2 1 1 1 0 0 2 2 3 3 3 3 3 3 3 3 4 4 4 4 4 4 5 5 5 6 6
18 17 15 14 13 12 11 10 9 8 7 7 5 5 5 4 3 3 4 5 6 5 4 5 7 9 8 6 5 3 4 5 5 4 5 5 5 4 4 5 4 4 5 4 4 4 3 3 2 1 2 3 5 4 1 0 0 1 1 1 1 0 1 1 2 3 3 3 4 4 4 3 3 4 4 4 5 5 5 6 6 6 7 7 7
19 18 16 16 14 12 12 11 10 9 8 8 6 5 6 5 5 5 5 6 8 7 5 5 7 8 6 5 3 0 0 4 4 4 5 5 4 4 4 5 4 3 4 3 3 4 4 3 2 3 4 5 4 3 2 1 1 2 1 1 1 1 1 2 2 3 3 3 4 4 4 4 4 4 4 4 5 5 5 6 6 6 7 7 8
19 19 18 17 15 14 13 12 11 11 9 9 7 7 7 6 7 7 6 6 7 8 8 5 5 6 6 6 4 3 3 4 2 3 4 4 5 4 4 5 4 3 4 4 5 4 3 3 2 3 4 4 4 3 2 2 1 1 1 1 1 2 2 3 3 4 4 4 4 4 4 4 4 5 5 5 5 5 6 6 6 6 7 7 8
18 19 19 18 16 15 13 13 12 12 11 9 8 8 8 7 7 7 7 6 6 9 11 8 6 5 7 9 7 5 5 4 3 4 3 4 5 6 6 5 4 4 4 5 5 3 2 4 4 4 4 3 5 5 2 2 2 2 2 1 2 3 3 4 5 5 5 5 5 5 5 5 5 5 6 6 6 6 6 7 7 7 7 8 8
17 19 20 19 17 16 15 14 13 13 12 11 10 9 9 9 9 8 7 7 7 9 11 10 9 6 7 10 10 8 6 5 5 5 4 4 4 6 8 9 7 6 6 5 5 4 5 4 3 6 7 4 4 5 4 4 4 4 3 3 4 5 5 6 6 7 7 7 7 7 7 6 6 6 6 6 7 7 7 7 8 8 8 8 9
19 20 21 20 19 17 16 14 14 14 13 13 11 10 9 9 9 9 8 8 7 9 11 11 11 8 8 9 10 9 7 7 6 6 6 5 5 7 7 8 7 8 8 6 6 7 7 4 3 6 7 5 5 6 6 7 8 7 7 6 6 6 7 8 8 9 9 10 10 9 9 8 7 7 7 7 7 7 8 8 8 9 9 10 10
21 20 21 21 20 19 17 16 15 14 14 14 13 12 11 10 10 9 8 8 8 10 12 13 12 11 10 9 9 9 8 8 7 7 8 7 7 9 5 3 4 6 7 6 7 8 8 7 6 7 7 6 7 8 8 8 9 10 8 8 8 8 9 9 10 10 10 11 11 10 10 9 8 8 8 8 8 8 8 9 9 9 10 10 10
25 23 21 21 21 20 19 18 17 16 15 14 13 13 13 12 11 10 8 9 10 10 12 13 13 12 11 10 9 9 9 9 8 7 8 9 8 8 6 4 5 6 6 6 7 8 8 9 8 8 8 7 8 10 10 9 10 10 9 9 10 9 10 10 11 11 12 12 12 11 11 11 10 10 9 9 9 9 10 10 10 11 11 11 11
27 26 23 21 21 21 20 19 19 18 16 15 14 14 15 13 12 11 9 8 9 11 11 12 13 13 12 11 11 10 9 9 9 9 8 8 9 9 7 6 6 7 7 8 8 8 9 9 10 10 10 10 10 11 12 9 9 12 11 11 11 10 10 11 11 12 12 13 13 13 13 12 12 12 11 11 11 11 12 12 12 12 12 12 12
27 27 25 23 22 21 21 20 20 20 18 17 16 15 16 15 14 13 11 9 10 11 12 13 14 14 14 14 13 11 11 10 9 9 9 8 9 9 9 8 8 7 8 8 8 10 10 9 10 10 11 13 12 11 13 10 10 14 13 11 12 12 11 11 12 12 12 13 14 13 13 13 13 13 13 13 13 13 14 14 14 14 14 14 14
25 27 27 25 24 23 23 21 20 21 20 19 19 18 18 17 16 15 13 11 11 12 13 13 14 14 14 15 14 13 12 11 10 9 9 9 9 9 10 9 9 9 8 8 8 9 10 10 10 11 12 14 14 12 13 13 12 14 14 12 13 13 12 11 12 13 13 12 13 13 13 13 13 13 13 13 14 14 15 15 16 16 16 17 16
25 25 26 28 27 26 26 23 21 21 21 20 20 20 19 19 18 17 16 14 13 13 13 14 15 15 15 16 16 14 13 13 13 11 11 12 11 10 10 10 10 9 8 8 9 9 9 10 11 12 13 14 13 11 13 13 13 12 11 11 10 11 12 10 10 12 12 12 12 12 12 13 13 13 13 14 14 14 15 15 16 17 18 18 18
29 26 25 27 29 28 27 26 24 22 21 20 20 20 20 20 20 19 18 16 16 15 14 14 15 16 16 16 17 16 15 15 14 13 13 14 13 12 12 11 12 11 9 8 9 9 9 10 10 10 12 13 13 11 11 12 12 11 10 10 9 11 13 11 9 10 11 11 12 12 12 12 13 13 13 13 13 14 15 16 17 17 18 19 19
32 30 28 27 29 29 28 28 27 25 23 22 21 21 21 21 21 21 20 19 19 17 16 15 16 17 18 18 18 17 16 15 15 14 15 16 14 13 13 13 14 14 12 10 9 8 9 9 9 8 10 11 10 10 10 11 11 11 11 12 11 12 13 12 10 10 10 11 11 11 12 12 12 13 13 13 14 14 15 16 17 18 18 19 19
32 32 32 31 30 29 29 29 28 26 25 24 22 22 22 23 23 22 22 22 20 18 18 18 17 18 19 19 20 19 18 17 16 16 16 16 15 13 14 14 15 16 15 14 11 10 10 10 9 9 9 10 9 10 10 10 11 10 9 11 11 11 11 10 10 10 10 11 12 12 13 13 13 14 14 14 15 16 17 18 18 19 19 20 20
32 31 32 33 33 32 30 30 29 28 28 27 25 24 24 24 24 24 24 25 23 21 21 20 19 19 20 20 21 20 20 19 18 17 16 17 16 15 15 15 15 16 16 16 15 12 11 11 11 10 10 10 10 11 12 12 11 11 10 11 11 11 10 9 9 11 12 11 11 12 13 13 14 14 14 14 15 16 17 18 19 20 20 21 21
33 32 32 33 34 34 33 31 30 30 30 29 28 26 25 25 26 25 25 26 26 25 25 22 20 19 20 21 21 21 21 21 20 19 17 17 17 16 17 16 16 16 16 17 17 15 13 13 13 13 12 12 12 13 14 13 12 11 12 12 11 11 11 10 9 11 13 12 11 10 11 12 12 12 13 14 15 16 17 19 20 21 22 22 23
34 34 34 34 34 35 35 33 33 32 31 31 30 28 27 28 27 27 26 27 27 28 27 25 22 21 20 20 20 21 22 22 22 21 19 18 18 18 18 18 17 17 17 17 17 17 15 14 14 14 14 14 15 15 15 15 14 13 14 14 12 10 10 11 10 10 12 13 10 9 10 11 11 12 13 14 15 16 18 19 20 21 22 23 24
33 34 35 34 34 36 36 35 35 34 33 33 32 30 28 28 29 29 28 28 29 29 28 27 25 24 23 22 21 21 22 23 23 22 22 21 21 20 20 20 20 18 18 18 18 17 16 15 15 15 14 14 15 15 15 16 16 15 16 15 12 11 11 11 10 11 12 12 10 10 11 11 11 12 13 14 15 16 18 19 20 21 22 23 23
34 32 35 36 35 36 37 36 36 36 36 35 35 33 30 28 29 30 30 30 30 30 29 29 28 27 27 26 24 23 23 24 24 24 24 24 23 23 22 22 22 21 20 19 19 18 17 16 15 15 15 15 15 15 15 15 15 15 16 14 13 13 12 12 11 11 12 13 11 11 11 12 12 12 12 14 15 16 18 19 21 21 22 22 23
37 33 34 37 37 37 37 37 37 37 37 37 37 36 34 31 30 31 31 31 31 32 31 30 30 30 29 29 28 26 25 26 27 26 25 25 25 25 25 24 24 23 22 22 21 20 19 18 17 16 16 16 16 17 17 16 15 15 15 14 13 13 13 12 11 11 12 13 13 13 12 12 13 13 13 15 16 17 19 20 21 21 21 21 22
39 35 33 36 38 38 38 38 38 38 38 38 39 38 37 36 34 33 33 32 33 33 33 32 32 31 32 31 31 30 29 29 28 29 28 27 26 26 27 26 26 25 24 23 22 22 20 19 18 17 16 17 18 18 17 17 17 16 16 14 12 13 13 13 13 12 12 13 13 13 13 13 14 15 16 17 17 18 18 18 19 19 19 20 19
38 37 34 34 36 39 39 38 38 38 39 40 41 40 40 39 38 36 35 35 34 35 35 35 34 33 33 33 33 33 33 32 31 31 30 29 28 27 27 28 28 27 25 23 23 22 21 19 18 18 17 17 18 18 17 18 19 18 18 17 15 15 15 15 15 14 14 15 16 14 12 14 15 16 17 18 18 17 17 16 16 16 17 17 17
36 36 35 34 34 37 40 39 39 39 40 41 42 43 42 41 40 39 38 38 37 36 37 37 36 35 34 32 33 35 35 34 33 33 33 32 30 29 28 28 29 29 28 25 23 23 22 21 19 18 18 18 19 19 19 20 21 19 17 17 17 16 15 15 17 17 16 17 17 15 14 14 14 13 15 16 16 15 15 15 16 16 16 17 17
36 36 36 35 34 35 38 40 40 40 41 43 44 44 44 43 42 42 41 41 40 39 39 39 39 38 36 34 33 35 36 36 35 34 34 33 32 30 28 28 28 29 30 28 26 24 23 22 21 20 19 19 19 19 20 22 21 19 17 18 17 16 15 16 17 17 17 16 15 14 15 15 13 13 14 14 14 13 13 14 16 17 18 19 20
39 38 38 37 36 34 35 39 41 41 42 44 44 44 44 44 44 43 43 44 43 43 42 42 41 41 39 37 35 35 37 37 37 36 36 35 34 31 29 29 28 28 29 29 28 26 24 23 22 21 20 20 19 19 20 20 21 20 19 19 19 17 16 16 16 16 17 16 15 15 16 16 15 15 15 13 12 12 12 15 18 18 19 19 19
43 41 40 41 41 38 36 37 41 43 42 42 44 44 44 44 44 44 44 44 45 45 44 44 44 43 42 40 38 36 37 39 39 39 38 37 36 33 30 29 30 29 28 28 29 28 26 25 23 22 21 20 19 19 19 19 21 21 20 20 19 17 17 17 16 16 17 17 16 17 17 17 16 15 13 11 11 11 13 18 20 19 18 20 21
46 45 44 45 45 44 41 38 39 43 44 44 43 43 43 43 42 42 43 44 45 46 46 45 45 44 44 43 41 39 38 40 41 41 40 39 37 35 32 29 31 31 29 28 29 29 27 25 24 23 22 21 20 20 20 20 21 21 20 20 19 17 17 17 16 16 18 17 16 17 19 18 14 12 11 11 11 13 14 18 19 19 20 23 24
47 48 48 47 47 47 46 43 41 41 43 45 45 44 43 43 42 42 42 43 45 46 46 46 45 45 46 45 45 43 40 40 42 41 40 40 38 37 35 32 32 33 32 31 30 30 29 27 25 24 23 23 22 20 20 22 23 22 19 19 18 17 16 16 15 17 19 19 18 17 18 15 10 10 11 11 12 13 14 16 18 19 22 24 23
47 48 48 48 48 47 47 47 45 43 43 45 46 47 46 44 44 43 43 44 45 46 46 46 46 46 46 46 46 45 43 43 44 43 42 41 41 39 37 35 33 34 36 35 33 32 32 31 28 25 22 23 22 21 21 23 23 21 19 17 17 17 16 15 16 19 19 18 17 15 14 11 10 11 12 11 11 12 12 15 18 20 22 22 21
44 45 46 47 47 47 47 47 47 47 46 45 46 48 47 45 44 44 45 45 46 47 47 48 47 47 48 48 47 46 44 44 45 45 44 43 43 42 40 38 36 35 37 38 36 33 33 34 33 29 24 22 22 23 23 22 20 19 19 18 18 18 18 17 18 18 16 15 16 16 15 13 11 11 11 10 11 13 13 15 18 19 19 19 21
40 39 40 42 43 44 45 46 47 48 46 45 47 48 48 46 45 45 46 46 47 48 49 49 50 50 50 49 47 45 45 45 46 48 47 44 45 44 43 41 38 36 37 39 38 35 32 32 34 34 30 27 24 24 24 23 20 19 17 17 17 16 16 16 17 16 15 13 14 16 14 12 10 11 11 12 13 14 14 13 14 16 18 20 22
38 35 33 35 37 40 42 43 44 45 45 46 47 47 48 47 46 45 46 47 48 49 49 50 51 52 52 50 47 45 43 44 47 49 49 47 47 46 45 42 39 38 38 38 37 36 33 32 34 35 35 33 30 28 27 26 25 22 20 18 16 14 14 15 15 15 14 13 13 14 13 12 11 12 11 12 12 13 11 10 11 15 19 20 19
38 36 33 33 34 36 38 40 40 41 42 43 44 45 46 46 46 45 45 47 49 50 51 51 52 53 52 48 46 47 47 45 46 47 48 49 48 48 47 42 37 39 40 34 29 31 33 34 36 37 36 36 35 33 31 30 28 26 24 21 18 15 15 16 15 14 14 13 13 16 16 14 12 10 9 10 11 11 10 10 11 14 15 16 16
Wind_Direction
203 207 200 201 211 208 220 264 217 228 243 266 284 292 291 309 343 351 360 15 28 32 25 65 88 159 166 121 114 115 130 155 198 273 44 95 112 117 101 88 76 68 84 113 129 135 134 129 135 140 136 125 120 134 157 163 168 170 169 173 185 193 192 195 185 187 209 219 236 244 247 255 259 262 267 277 302 319 330 342 340 328 316 314 321
208 202 206 208 212 213 203 241 258 241 243 263 285 300 300 329 360 12 358 11 32 31 30 35 89 141 147 116 111 80 82 105 176 266 313 75 96 123 124 112 86 78 82 106 138 151 155 158 160 158 149 149 150 147 152 162 176 184 181 182 193 211 214 217 222 222 234 245 257 257 255 260 262 266 271 278 289 298 302 305 313 320 321 319 320
218 208 207 215 214 215 203 216 249 255 252 259 290 310 327 348 7 20 351 19 42 26 24 331 11 84 85 99 124 113 88 67 104 227 305 6 50 15 131 133 99 90 89 95 127 164 162 167 170 171 174 174 179 180 178 172 180 192 194 193 204 228 237 240 249 250 252 257 262 263 262 265 267 270 274 279 282 286 290 289 292 301 306 308 311
214 211 202 211 214 214 216 219 231 250 263 286 308 322 345 356 7 14 358 36 43 18 19 20 5 69 162 117 112 115 99 92 127 109 303 299 49 28 147 135 114 103 98 98 97 165 156 164 174 183 193 192 191 195 200 199 204 211 207 213 222 236 247 250 252 251 255 258 255 254 256 259 262 268 274 277 281 284 286 285 285 288 291 296 303
212 210 204 209 218 214 215 228 237 249 275 317 333 342 347 357 2 4 31 41 33 19 16 18 59 44 325 105 107 92 92 123 48 8 8 326 34 35 156 133 145 143 122 115 110 150 152 165 184 194 199 194 202 209 214 216 225 234 230 230 232 238 248 251 251 249 251 253 250 248 249 253 255 258 264 269 273 277 279 280 282 286 289 294 297
214 211 208 209 226 224 214 225 239 260 296 333 347 331 330 353 354 4 37 45 27 18 15 351 44 68 29 45 89 60 99 163 16 341 330 20 37 80 134 124 158 161 156 156 129 156 163 186 210 212 195 182 195 211 223 228 234 244 244 244 244 246 252 254 253 251 252 253 253 254 252 252 254 258 262 264 266 268 271 275 279 284 289 291 293
215 215 211 207 223 231 224 230 245 280 307 336 349 309 324 348 357 19 35 38 18 10 26 21 13 203 316 30 89 58 38 208 24 313 281 320 53 73 117 136 167 170 180 184 166 221 135 167 228 232 201 170 176 195 221 237 242 248 251 254 252 251 253 255 255 253 254 253 253 256 258 258 259 262 264 267 268 269 271 273 277 281 285 287 290
216 217 213 209 216 225 229 238 255 286 298 325 339 312 332 338 355 34 42 23 17 10 36 36 59 109 39 96 145 77 93 13 31 158 259 308 52 62 106 158 206 236 255 215 169 231 76 146 217 205 163 120 135 218 253 263 260 259 260 260 259 251 247 249 254 256 254 253 254 256 258 260 261 262 264 267 269 271 273 274 275 278 281 284 286
217 217 213 210 212 220 233 242 255 273 289 314 320 301 329 334 343 40 62 33 28 20 36 52 148 127 44 116 128 67 71 55 69 149 216 293 154 92 83 131 226 233 262 194 111 21 9 256 243 183 99 99 115 274 292 286 284 275 258 252 251 241 242 249 257 259 255 252 253 256 260 261 262 263 264 267 269 271 273 274 274 274 274 276 280
215 217 212 209 213 217 230 240 248 259 278 299 293 285 304 327 336 28 64 47 36 6 29 108 168 183 156 99 115 146 133 15 171 151 202 289 306 100 69 66 140 173 205 151 89 34 7 278 271 295 326 88 163 115 82 329 348 285 230 228 232 228 234 246 253 258 259 258 260 265 270 270 269 269 270 271 272 272 272 273 274 273 271 272 275
214 217 215 213 218 219 228 238 246 250 264 277 274 286 298 318 329 338 26 43 42 17 46 124 133 155 144 103 101 160 161 134 180 152 180 267 258 135 134 72 106 121 231 82 64 43 27 320 319 328 345 25 19 108 95 71 51 80 155 178 202 211 222 234 249 257 266 272 274 276 277 278 277 275 274 274 275 275 275 276 276 276 276 276 276
215 217 219 219 221 224 230 238 243 247 258 247 230 261 284 305 322 328 19 48 38 35 89 139 157 178 150 128 109 157 155 125 148 167 175 212 211 153 69 52 87 114 78 46 36 50 69 89 22 44 74 11 36 86 66 68 64 70 98 132 174 187 194 206 244 253 264 269 262 268 277 286 286 281 279 278 279 280 280 279 278 278 279 280 281
217 216 220 223 222 224 228 234 236 240 247 237 227 240 259 284 318 341 41 83 40 22 110 133 151 169 172 159 159 151 127 101 122 171 166 167 171 136 110 101 120 141 116 85 356 355 68 105 67 40 62 56 198 35 37 79 84 81 98 129 144 142 148 162 189 184 156 185 329 322 308 314 308 296 293 293 294 292 288 283 280 280 281 283 286
219 217 219 221 222 222 225 231 232 234 237 233 236 245 258 280 300 26 70 111 120 135 133 128 121 142 156 160 180 157 133 138 142 143 149 143 135 136 133 132 133 127 115 96 61 38 42 71 86 109 107 108 238 273 99 98 77 79 110 147 151 159 174 185 185 139 123 104 58 44 27 10 4 343 326 320 317 312 306 300 294 290 289 290 291
220 218 218 218 220 219 222 228 228 228 230 229 233 240 254 254 221 126 146 130 160 190 155 143 127 160 166 160 172 159 135 139 148 143 146 140 136 137 129 125 128 114 99 95 94 99 85 34 44 77 79 89 105 148 121 80 42 65 96 125 143 154 158 148 93 91 106 109 106 99 77 56 35 13 358 350 343 336 327 320 312 306 303 301 299
220 219 218 218 218 216 218 222 225 225 222 225 225 227 246 236 199 148 160 149 154 194 171 158 152 163 171 172 177 164 149 151 152 144 142 142 140 140 136 131 128 113 102 109 111 104 84 49 36 35 13 10 64 85 62 55 67 83 88 95 96 106 114 107 62 48 51 40 43 38 24 333 315 315 315 320 322 327 327 324 321 315 312 311 308
220 220 217 218 218 216 218 217 221 223 219 224 220 216 234 230 202 170 169 168 160 178 187 183 179 166 164 182 184 140 123 142 148 142 139 148 143 139 143 139 134 129 134 150 115 94 83 54 36 34 351 44 89 94 19 36 69 62 71 85 85 114 157 249 280 295 299 304 307 308 307 295 292 287 285 289 289 293 297 298 301 302 304 306 306
220 221 219 219 219 216 219 217 218 222 218 220 217 217 224 209 187 184 189 190 173 169 188 195 201 185 169 174 171 72 57 121 142 146 146 153 151 150 156 148 144 140 141 142 105 91 81 50 50 112 130 127 132 144 165 19 336 343 9 4 12 329 293 288 285 294 299 307 312 313 316 315 312 309 303 300 297 297 297 296 298 299 301 302 303
219 222 222 222 223 219 220 219 218 221 220 220 216 216 219 196 182 188 196 204 189 177 186 199 207 198 183 184 189 322 88 142 140 152 157 164 171 175 172 156 147 130 131 145 135 118 110 93 86 112 130 145 154 167 202 248 278 293 320 339 356 3 349 346 341 340 336 333 335 334 333 336 335 335 333 327 323 318 315 314 313 312 311 310 309
220 222 225 224 224 221 220 219 218 220 221 222 218 216 221 204 194 200 200 210 207 181 176 196 205 196 196 198 209 240 205 163 159 178 172 174 183 187 180 171 167 164 153 152 165 158 125 127 134 127 141 152 145 152 215 261 244 251 296 339 348 355 354 356 355 353 354 348 342 339 334 333 333 334 337 336 334 332 329 327 324 323 320 318 316
222 223 227 225 224 222 220 220 218 220 220 220 219 219 227 222 217 225 208 202 214 185 171 183 193 200 219 203 193 213 206 196 214 206 196 189 187 183 178 188 200 193 184 162 172 210 161 150 164 166 167 165 154 161 201 259 241 254 280 298 313 326 327 333 338 340 346 347 342 339 332 328 327 326 327 328 327 326 325 325 324 324 323 321 318
221 222 229 228 226 222 220 221 219 221 220 216 218 221 227 233 239 247 223 199 214 198 177 184 189 195 230 209 187 191 194 203 215 205 207 204 204 199 179 185 200 197 201 198 193 198 173 169 199 189 181 176 170 173 187 214 235 252 266 280 291 306 312 316 322 327 333 337 338 336 333 330 326 323 321 319 319 317 316 317 318 319 318 316 314
221 220 227 229 227 224 220 221 220 221 220 215 216 220 225 233 238 243 232 208 212 210 191 191 194 191 212 206 184 183 189 195 204 205 209 197 213 228 193 178 197 192 195 209 204 194 192 207 223 193 191 195 197 200 201 209 227 243 259 277 283 290 300 306 311 316 322 325 328 327 326 325 322 320 320 318 319 318 317 315 313 312 310 307 305
223 221 225 227 226 224 221 221 220 219 220 217 215 217 218 225 227 227 230 215 210 217 204 198 201 197 202 204 187 187 196 199 199 207 212 199 210 236 225 179 198 192 192 208 205 206 215 218 209 208 220 220 209 213 213 218 236 251 261 270 276 283 289 296 302 306 312 315 317 319 317 315 314 313 315 317 321 322 322 322 318 316 312 309 306
226 224 226 228 228 225 221 222 222 220 220 217 214 215 215 221 225 221 227 223 213 219 215 206 207 203 201 206 202 199 203 206 202 201 207 205 210 229 234 213 206 204 203 206 210 218 223 221 220 223 228 224 218 223 225 223 238 258 270 271 273 277 282 290 295 299 304 307 309 313 313 312 312 312 313 313 315 317 319 319 318 317 316 314 313
229 228 226 225 228 231 227 223 225 224 222 221 218 218 218 220 226 227 231 229 216 218 221 214 210 208 203 205 209 208 207 209 208 200 198 207 211 214 222 220 212 212 205 201 214 223 220 222 227 227 225 223 221 234 245 234 233 255 268 272 274 273 274 282 287 290 295 298 302 306 308 310 309 309 309 308 308 309 310 311 312 313 313 313 314
232 233 228 221 220 228 232 229 227 228 226 225 223 223 224 222 224 231 232 226 219 219 222 220 215 212 209 206 207 212 210 206 209 207 200 205 213 212 215 220 217 215 209 207 216 221 221 224 225 224 227 228 225 232 247 242 230 245 255 256 264 269 266 266 270 277 282 286 292 297 301 303 302 302 302 303 303 303 304 306 308 308 309 310 311
230 235 234 229 221 222 231 233 229 229 229 228 228 230 230 227 224 230 231 222 223 224 220 221 221 217 216 212 208 210 214 208 205 211 209 205 210 214 213 215 216 216 214 216 219 222 223 221 222 225 227 239 244 233 237 246 239 242 251 251 253 260 263 259 256 263 270 274 281 286 290 292 293 294 295 296 297 298 299 302 303 305 305 306 307
226 231 235 236 232 227 231 235 232 230 231 230 233 232 230 229 226 228 230 221 222 228 222 222 225 221 220 221 216 210 212 214 208 207 214 210 205 210 214 213 214 216 218 219 221 226 222 214 223 231 229 246 262 245 235 248 250 247 251 253 254 257 264 263 252 255 264 268 270 273 277 281 283 286 288 290 293 294 297 298 300 301 302 303 303
227 227 230 235 238 235 234 236 235 233 232 229 230 230 227 228 227 229 232 226 222 228 226 222 225 225 221 223 226 219 212 217 217 209 216 220 212 209 213 212 212 216 221 226 225 225 222 214 223 240 244 252 264 254 239 242 246 245 239 236 239 246 256 264 260 257 260 260 262 265 267 272 276 280 284 288 292 295 297 298 299 300 300 299 299
231 229 227 230 237 237 236 237 237 236 235 231 229 229 226 226 226 227 230 229 225 226 232 229 224 226 225 222 225 227 219 218 222 217 219 227 224 215 214 214 214 214 215 224 230 224 219 217 220 238 252 253 246 237 237 240 243 242 236 234 236 241 250 261 265 264 263 262 264 266 269 272 276 282 287 290 293 295 296 297 298 298 298 297 295
233 233 231 230 233 235 235 236 235 234 234 233 229 228 227 226 227 228 228 231 228 223 232 236 227 226 231 229 227 230 227 220 222 222 223 231 231 221 216 218 220 220 215 216 223 224 220 220 219 224 240 250 241 223 219 234 249 247 238 242 249 256 264 269 272 272 271 270 271 272 274 278 283 289 293 295 297 297 297 297 297 296 295 293 293
232 232 234 233 233 234 236 235 235 233 233 234 232 229 229 228 229 229 229 233 233 228 231 234 229 226 232 237 235 233 233 228 225 223 223 232 235 225 220 222 223 225 223 219 219 223 226 226 224 222 226 237 244 235 220 220 242 254 249 249 257 265 269 268 268 276 281 280 277 276 278 283 289 293 295 296 297 298 298 297 296 296 294 292 291
234 232 233 236 235 235 235 235 235 234 232 234 235 233 232 233 233 232 230 234 237 236 235 233 228 226 229 238 240 237 238 237 233 227 219 224 232 227 222 223 222 222 226 225 219 220 228 231 228 228 228 227 230 238 236 224 227 246 252 251 255 263 267 260 252 264 279 282 281 281 282 284 288 291 293 296 297 297 297 296 296 295 295 294 293
235 235 234 235 237 236 235 235 237 236 233 234 235 234 235 237 238 235 233 234 237 239 240 237 232 227 227 235 239 238 240 242 240 235 225 219 224 226 222 221 220 218 223 230 226 220 223 230 231 231 232 232 229 231 238 236 228 232 242 249 251 253 261 263 256 252 260 268 276 281 280 281 287 293 296 297 296 294 293 292 293 293 293 293 293
231 235 236 235 236 237 236 235 236 238 236 236 235 234 234 237 240 238 235 235 238 241 244 243 238 233 231 236 240 239 241 245 245 241 235 226 222 223 224 222 222 219 218 227 232 227 222 225 232 233 231 233 237 234 233 238 239 235 239 248 248 241 243 250 254 250 251 260 273 277 277 280 286 292 297 296 293 292 292 292 292 291 290 290 290
228 230 236 236 235 237 237 235 235 237 238 238 238 235 233 234 238 240 238 237 240 242 244 245 243 240 238 240 244 242 240 243 246 244 241 236 229 227 227 225 227 226 220 221 230 232 227 223 227 234 235 232 236 237 230 230 238 242 244 246 243 242 245 246 247 249 256 269 279 277 275 278 283 289 292 293 293 291 291 293 293 291 290 290 289
229 225 231 237 237 236 237 236 235 235 237 239 240 238 235 234 236 240 240 239 241 243 244 245 245 245 244 243 245 245 242 241 244 245 244 241 236 233 232 229 229 230 227 223 225 230 231 228 224 230 236 234 232 233 231 229 231 235 244 249 246 247 253 255 249 243 253 270 276 274 276 281 288 293 293 291 293 293 292 292 292 290 290 290 289
231 224 224 233 239 238 237 237 236 236 236 238 240 240 238 237 237 239 241 241 241 243 244 245 245 246 247 247 246 246 245 244 244 245 245 243 240 237 237 235 231 230 229 226 225 227 229 229 226 226 231 235 235 235 234 236 234 231 237 244 246 248 255 263 261 248 246 256 261 268 280 284 284 287 290 291 292 294 294 293 291 291 290 290 291
232 229 222 225 235 240 240 238 238 237 237 237 239 240 240 240 239 240 242 242 242 243 244 245 245 244 244 246 247 247 248 248 247 246 245 244 243 240 239 238 235 232 229 225 223 223 223 224 224 224 227 232 235 234 235 238 238 237 239 240 240 245 253 263 267 261 252 250 256 265 274 276 278 283 287 290 294 297 298 296 295 294 293 292 295
227 230 226 222 227 237 242 242 240 239 239 239 239 240 240 240 241 242 243 244 243 244 245 246 245 244 240 240 243 246 249 250 249 248 247 247 245 243 241 239 237 235 232 225 221 220 219 219 220 222 224 227 230 229 229 235 241 244 246 244 241 240 243 252 261 265 260 254 258 267 272 275 280 282 283 289 296 299 299 299 298 295 293 293 296
224 228 229 224 221 228 239 243 243 240 240 241 240 241 241 242 242 243 244 245 245 245 245 246 246 245 241 237 237 243 249 250 250 249 249 248 248 246 245 243 239 237 235 229 224 220 218 218 219 219 220 224 227 225 226 234 242 243 239 238 240 240 241 247 254 261 261 255 255 265 273 278 278 276 279 285 287 288 289 289 288 289 290 290 293
225 227 229 229 225 223 229 239 245 244 241 242 243 243 243 243 244 245 246 247 247 247 247 247 246 246 244 240 236 239 245 249 250 250 250 249 249 247 245 244 243 242 239 236 229 222 218 218 219 219 221 223 225 226 228 231 237 238 234 234 239 240 242 247 251 256 263 262 262 269 276 280 282 280 281 281 282 284 281 277 282 289 292 292 295
229 228 229 232 233 229 224 230 241 246 245 243 243 244 244 245 245 246 247 248 249 249 249 248 248 247 247 244 238 236 241 246 248 250 251 250 250 249 246 243 244 244 242 240 236 229 223 220 220 220 222 223 223 225 228 229 232 235 234 235 238 236 239 248 251 254 261 264 265 271 277 282 283 281 279 282 283 280 279 284 294 302 302 301 303
232 231 232 235 238 238 233 228 233 242 246 246 244 244 244 246 246 246 247 248 250 251 251 251 250 250 249 247 242 237 237 242 246 249 250 251 251 251 247 243 242 243 242 240 239 235 229 224 222 223 223 223 223 226 230 229 230 231 232 236 240 236 240 251 255 255 261 265 268 273 280 285 284 276 274 278 280 282 288 295 302 305 303 303 304
233 234 236 238 239 241 240 235 232 236 242 245 247 246 245 245 246 246 246 247 249 251 253 253 252 252 251 251 248 243 238 239 243 246 248 250 250 250 248 243 240 241 241 239 237 236 233 226 225 227 226 225 224 226 229 231 232 233 234 239 242 238 242 252 258 259 265 273 276 274 277 280 276 266 269 274 282 291 296 294 292 293 295 297 302
236 238 239 241 241 242 243 241 238 237 239 243 247 249 248 246 246 246 246 246 247 249 251 253 253 253 253 252 251 248 243 241 243 244 246 250 251 250 248 245 241 239 239 238 236 235 235 232 228 226 227 228 227 225 228 234 238 238 238 242 246 246 248 254 261 264 269 278 278 267 262 266 263 265 275 282 286 289 290 287 286 288 292 295 299
237 240 242 243 243 243 244 245 245 243 242 243 247 250 251 250 248 248 247 246 246 247 248 250 252 253 253 252 250 249 246 243 244 245 246 249 252 251 249 247 243 240 241 241 238 236 238 238 234 229 227 229 230 229 229 232 236 238 239 242 246 250 252 257 263 266 269 273 270 261 259 264 266 270 277 282 283 283 285 288 288 290 293 294 296
233 236 239 242 243 244 245 247 248 249 247 246 248 251 252 252 250 249 249 248 247 246 246 247 249 250 252 250 247 246 245 245 246 247 246 246 247 249 249 247 243 241 241 242 240 237 237 239 239 235 230 227 229 232 235 233 233 237 238 239 241 244 248 254 259 264 265 262 259 260 261 260 261 270 275 278 283 288 291 294 293 292 293 293 297
232 230 231 236 242 245 247 249 250 251 251 250 251 252 253 254 252 250 249 249 249 249 248 247 248 248 250 249 245 243 242 244 246 247 246 244 243 244 245 243 240 239 238 237 237 236 234 234 236 236 234 230 227 229 234 235 235 237 238 238 238 237 242 250 256 263 267 262 253 253 253 253 261 270 273 279 288 292 293 291 287 289 294 300 305
237 234 230 232 237 242 248 251 250 250 251 252 253 254 253 253 253 252 251 249 249 250 250 249 248 248 248 247 245 245 244 243 243 245 246 243 239 240 242 238 235 235 234 228 225 228 229 229 231 232 233 232 229 228 231 234 236 238 240 239 236 233 237 246 250 256 265 266 257 250 249 256 267 268 267 281 294 292 286 283 281 284 291 296 299